Regional Weather Roundup
Issued by NWS

Home | Current Version | Previous Version | Graphics & Text | Print | Product List | Glossary On
Versions: 1 2 3 4 5 6 7 8 9 10 11 12 13 14 15 16 17 18 19 20 21 22 23 24 25 26 27 28 29 30 31 32 33 34 35 36 37 38 39 40 41 42 43 44 45 46 47 48 49 50
000
ASUS43 KTOP 281408
RWRKS

WEATHER ROUNDUP FOR KANSAS
NATIONAL WEATHER SERVICE GOODLAND KS
900 AM CDT MON JUL 28 2014

NOTE:  "FAIR" INDICATES FEW OR NO CLOUDS BELOW 12,000 FEET WITH NO
SIGNIFICANT WEATHER AND/OR OBSTRUCTIONS TO VISIBILITY.

KSZ001>006-013>018-027>032-041>047-281500-
NORTHWEST KANSAS

CITY           SKY/WX    TMP DP  RH WIND       PRES   REMARKS
GOODLAND       MOSUNNY   70  52  52 S10       30.35R
HAYS           SUNNY     66  55  68 E7        30.34R
HILL CITY      SUNNY     67  58  72 E8        30.35R
RUSSELL        SUNNY     68  58  70 NE8       30.31R
$$

KSZ061>065-074>080-084>089-281500-
SOUTHWEST KANSAS

CITY           SKY/WX    TMP DP  RH WIND       PRES   REMARKS
DODGE CITY     CLOUDY    71  56  58 S8        30.35S
ELKHART          N/A     62  56  81 SE13        N/A
GARDEN CITY    CLOUDY    69  57  65 SE8       30.34R
GREAT BEND     PTSUNNY   70  57  64 E6        30.32R
LIBERAL        CLOUDY    70  57  64 S13       30.37S
PRATT          MOSUNNY   72  55  56 E3        30.34R
$$

KSZ066>073-081>083-090>101-281500-
SOUTHEAST KANSAS

CITY           SKY/WX    TMP DP  RH WIND       PRES   REMARKS
CHANUTE        SUNNY     70  60  70 N7        30.22R
COFFEYVILLE    SUNNY     70  62  76 N6        30.21R HAZE
HUTCHINSON     MOSUNNY   70  59  68 NE3       30.29R
MEDICINE LODGE   N/A     75  61  61 CALM      30.30R
NEWTON         SUNNY     70  55  60 NE10      30.31R
PARSONS        SUNNY     73  60  63 N3        30.22R
WICHITA INTL   MOSUNNY   72  58  61 NE8       30.27R
WICHITA JABRA  SUNNY     71  59  65 NE8       30.27R
WICHITA MCCONL SUNNY     73  59  61 NE8       30.28R
WINFIELD       SUNNY     72  61  68 E5        30.27R
$$

KSZ007>012-019>026-033>040-048>060-102>105-281500-
NORTHEAST KANSAS

CITY           SKY/WX    TMP DP  RH WIND       PRES   REMARKS
CONCORDIA      MOSUNNY   67  57  70 N8        30.30R
EMPORIA        MOSUNNY   69  57  65 N10       30.25R
LAWRENCE       SUNNY     69  59  70 N9        30.22S
MANHATTAN      SUNNY     68  57  68 NE9       30.26R
MARYSVILLE     SUNNY     64  59  82 N8        30.27S
OLATHE IND     SUNNY     67  59  75 NW9       30.22R
OLATHE EXE     SUNNY     68  58  70 N10       30.20S
SALINA         MOSUNNY   70  57  63 NE6       30.29R
TOPEKA BILLARD SUNNY     70  59  68 N10       30.24R
TOPEKA FORBES  SUNNY     70  57  63 N10       30.24R
$$


USA.gov is the U.S. government's official web portal to all federal, state and local government web resources and services.